[[{"header":{"parameterUnit":"m.s-1","parameterCategory":1,"la1":30.2991,"la2":30.254,"lo1":-89.0895,"lo2":-89.0444,"dy":0.0017,"dx":0.0017,"nx":28,"ny":28,"refTime":"2024-07-13T21:00:00:Z","depth":0,"parameterNumber":2,"parameterNumberName":"U-component_of_WINDS"},"data":[0,0,0,0,0,0,0,0,0,0,0,0,0,0,0,0,0,0,0,0,0,0,0,0,0,0,0,0,0,0,0,0,0,0,0,0,0,0,0,0,0,0,0,0,0,0,0,0,0,0,0,0,0,0,0,0,0,0,0.3522,0.3523,0,0.3571,0.3572,0.3573,0.357,0.3569,0.3569,0.3568,0.3625,0.3627,0.3629,0,0,0,0,0,0,0,0,0,0,0,0,0,0.3431,0.3433,0.3522,0.3523,0.3523,0.3571,0.3572,0.3573,0.357,0.3569,0.3568,0.3568,0.3624,0.3626,0.3629,0,0,0,0,0,0,0,0,0,0,0,0,0,0.3474,0.3433,0.3522,0.3528,0.3529,0.3571,0.3572,0.3573,0.357,0.3569,0.3568,0.3567,0.3623,0.3626,0.3629,0.3671,0,0,0.3639,0.3641,0,0,0,0,0,0,0,0,0.3472,0.3478,0.3526,0.3527,0.3529,0.3563,0.3561,0.3606,0.3571,0.3555,0.3568,0.3567,0.3605,0.361,0.3622,0.3674,0.3676,0.364,0.3642,0.3643,0.3644,0,0,0,0,0,0,0,0.3469,0.3476,0.3542,0.3527,0.3528,0.3529,0.3534,0.3569,0.3586,0.3556,0.3556,0.3561,0.3606,0.3619,0.3623,0.3677,0.364,0.3642,0.3644,0.3646,0.3766,0.3767,0,0,0,0,0,0,0.3464,0.3473,0.354,0.3543,0.3497,0.3532,0.3538,0.3553,0.3585,0.3589,0.3562,0.3561,0.3614,0.3619,0.3625,0.3676,0.3643,0.3646,0.3648,0.3765,0.3766,0.3767,0,0,0,0,0,0,0.3462,0.347,0.3538,0.3508,0.3517,0.3535,0.3552,0.3555,0.3568,0.359,0.3594,0.3572,0.3613,0.3621,0.3659,0.3678,0.3648,0.365,0.3763,0.3765,0.3767,0.3779,0,0,0,0,0,0,0.3459,0.3469,0.3484,0.3508,0.3518,0.357,0.3554,0.3557,0.3573,0.3572,0.36,0.3604,0.3613,0.3654,0.3663,0.3682,0.3653,0.3762,0.3764,0.3766,0.3777,0.3781,0.3784,0,0,0,0,0,0.3456,0.3487,0.3485,0.3493,0.3537,0.3571,0.3577,0.3585,0.3574,0.359,0.3604,0.3603,0.3674,0.3658,0.3668,0.3688,0.376,0.3763,0.3766,0.3775,0.378,0.3784,0,0,0,0,0,0,0.3467,0.349,0.3488,0.3528,0.3547,0.3571,0.3591,0.359,0.3615,0.3613,0.3623,0.363,0.3669,0.3682,0.3664,0.3731,0.3716,0.3721,0.372,0.3725,0.3729,0.3725,0.3656,0,0,0,0,0,0.3473,0.3497,0.3517,0.355,0.356,0.3573,0.3589,0.3593,0.3614,0.3623,0.364,0.3663,0.369,0.3708,0.3735,0.3778,0.3785,0.3797,0.3801,0.3804,0.3808,0.3832,0.3838,0.3776,0.3776,0.3776,0,0,0.3488,0.3504,0.3519,0.3553,0.3568,0.3594,0.3581,0.3609,0.3629,0.3628,0.3665,0.3678,0.3704,0.3745,0.3764,0.3758,0.3826,0.3807,0.381,0.3812,0.3836,0.3842,0.3847,0.3778,0.3778,0.3778,0,0,0.3528,0.3542,0.3571,0.3586,0.3609,0.3618,0.3624,0.3648,0.3656,0.3692,0.3692,0.3717,0.3764,0.3782,0.3798,0.3843,0.3843,0.3851,0.3871,0.3895,0.39,0.3904,0.3921,0.3926,0.3855,0.3855,0.3855,0,0.3544,0.3581,0.3586,0.3614,0.3629,0.3627,0.3657,0.3672,0.3704,0.3715,0.3707,0.3765,0.3782,0.3828,0.3838,0.3851,0.386,0.3849,0.3898,0.3903,0.3907,0.3923,0.3929,0.3856,0.3856,0.3856,0.3856,0,0.36,0.3626,0.3647,0.3674,0.3692,0.3721,0.3731,0.3749,0.3751,0.3761,0.3799,0.3819,0.3849,0.386,0.3864,0.3906,0.3901,0.3895,0.3882,0.3913,0.3929,0.3935,0.3858,0.3857,0.3857,0.3857,0,0,0.365,0.3678,0.3686,0.3698,0.3723,0.3744,0.3773,0.38,0.3815,0.3836,0.3862,0.3901,0.3895,0.3912,0.3918,0.3938,0.3973,0.393,0.3931,0.3938,0.4021,0.4026,0.4033,0.3972,0.3974,0.3974,0.4019,0,0.3693,0.3742,0.3747,0.3792,0.3816,0.3814,0.3839,0.3858,0.3867,0.3891,0.3902,0.393,0.392,0.393,0.395,0.3964,0.399,0.3961,0.3998,0.3999,0.3992,0.4041,0.4047,0.4088,0.4025,0.4026,0.4027,0,0.375,0.377,0.3817,0.3837,0.3848,0.387,0.3895,0.3917,0.3938,0.3944,0.3962,0.3965,0.3996,0.3979,0.4023,0.4003,0.4018,0.4028,0.4029,0.4034,0.4016,0.4048,0.4102,0.4108,0.4037,0.4036,0.4035,0,0.3782,0.3822,0.3854,0.3865,0.3889,0.3905,0.3916,0.3936,0.3952,0.3975,0.3985,0.4012,0.4027,0.4048,0.4058,0.4045,0.4101,0.4086,0.4108,0.4108,0.4121,0.4121,0.4179,0.413,0.4129,0.4129,0.4129,0,0.383,0.3859,0.3869,0.3889,0.3922,0.3927,0.396,0.397,0.3988,0.4011,0.4011,0.4034,0.4045,0.4069,0.4077,0.4113,0.4119,0.4126,0.4128,0.4126,0.4126,0.4137,0.4135,0.4131,0.4131,0.413,0.413,0,0.3873,0.388,0.3916,0.3935,0.394,0.3963,0.3981,0.4001,0.401,0.4039,0.4047,0.4061,0.409,0.4101,0.4137,0.4142,0.4183,0.4183,0.4175,0.4176,0.4198,0.4196,0.4267,0.4277,0.422,0.4221,0.4221,0,0.3903,0.3925,0.3945,0.396,0.3971,0.3995,0.401,0.4017,0.4033,0.4058,0.4076,0.4104,0.4126,0.4172,0.4187,0.4215,0.4215,0.4238,0.422,0.4217,0.4216,0.4215,0.4218,0.4242,0.4243,0.4243,0.4243,0,0.3957,0.3959,0.398,0.4003,0.4021,0.404,0.4058,0.4071,0.408,0.4099,0.4126,0.4144,0.4179,0.4207,0.4235,0.4248,0.4248,0.4249,0.4255,0.4255,0.425,0.4253,0.4186,0.4247,0.4247,0.4247,0.4247,0.4246,0.3995,0.4014,0.4031,0.4055,0.4068,0.4085,0.4105,0.4115,0.4138,0.4165,0.4168,0.4198,0.4219,0.4255,0.427,0.4294,0.4289,0.4298,0.4301,0.4304,0.4305,0.4245,0.4299,0.4299,0.4299,0.4299,0.4299,0,0.4049,0.4059,0.4081,0.4105,0.4124,0.4119,0.4139,0.4156,0.4182,0.42,0.4221,0.4253,0.428,0.4296,0.4324,0.434,0.4341,0.4348,0.4347,0.435,0.4309,0.43,0.4346,0.4346,0.4346,0.4346,0.4346,0.4346,0.4079,0.4111,0.4115,0.4154,0.4165,0.4192,0.4204,0.422,0.4234,0.4269,0.4291,0.43,0.4318,0.4346,0.4371,0.4375,0.4386,0.4393,0.4397,0.4358,0.4353,0.4348,0.4341,0.4395,0.4395,0.4436,0.4437,0.4437]},{"header":{"parameterUnit":"m.s-1","parameterCategory":1,"la1":30.2991,"la2":30.254,"lo1":-89.0895,"lo2":-89.0444,"dy":0.0017,"dx":0.0017,"nx":28,"ny":28,"refTime":"2024-07-13T21:00:00:Z","depth":0,"parameterNumber":3,"parameterNumberName":"V-component_of_WINDS"},"data":[0,0,0,0,0,0,0,0,0,0,0,0,0,0,0,0,0,0,0,0,0,0,0,0,0,0,0,0,0,0,0,0,0,0,0,0,0,0,0,0,0,0,0,0,0,0,0,0,0,0,0,0,0,0,0,0,0,0,2.6603,2.6602,0,2.655,2.6549,2.6549,2.6539,2.6539,2.654,2.654,2.6481,2.6479,2.6477,0,0,0,0,0,0,0,0,0,0,0,0,0,2.6689,2.6688,2.6603,2.6602,2.6601,2.655,2.6549,2.6548,2.6539,2.6539,2.654,2.654,2.6482,2.648,2.6477,0,0,0,0,0,0,0,0,0,0,0,0,0,2.6645,2.6687,2.6603,2.659,2.6589,2.655,2.6549,2.6548,2.6539,2.6539,2.654,2.654,2.6483,2.648,2.6477,2.6446,0,0,2.6468,2.6467,0,0,0,0,0,0,0,0,2.6648,2.6642,2.6593,2.6591,2.6589,2.6552,2.6558,2.6514,2.6538,2.6557,2.654,2.6541,2.6504,2.6499,2.6488,2.6443,2.644,2.6468,2.6466,2.6465,2.6464,0,0,0,0,0,0,0,2.6651,2.6644,2.6582,2.6592,2.659,2.6585,2.658,2.655,2.6527,2.6556,2.6555,2.6549,2.6503,2.6491,2.6486,2.6439,2.6468,2.6465,2.6463,2.6462,2.6363,2.6362,0,0,0,0,0,0,2.6657,2.6647,2.6583,2.658,2.6621,2.6583,2.6577,2.6563,2.6528,2.6523,2.6549,2.6549,2.6495,2.649,2.6484,2.6443,2.6465,2.6462,2.646,2.6364,2.6362,2.6362,0,0,0,0,0,0,2.6659,2.6651,2.6585,2.6613,2.6605,2.6581,2.6565,2.6562,2.6549,2.6522,2.6518,2.654,2.6496,2.6488,2.6455,2.6441,2.6461,2.6458,2.6365,2.6363,2.6362,2.6361,0,0,0,0,0,0,2.6661,2.6652,2.6641,2.6613,2.6603,2.6559,2.6564,2.656,2.6545,2.6545,2.6514,2.6509,2.6496,2.6459,2.6452,2.6437,2.6456,2.6366,2.6364,2.6362,2.6363,2.636,2.6358,0,0,0,0,0,2.6664,2.6643,2.6641,2.6633,2.659,2.6558,2.6552,2.6539,2.6544,2.6532,2.6514,2.651,2.6444,2.6456,2.6448,2.6432,2.6366,2.6364,2.6363,2.6364,2.6361,2.6358,0,0,0,0,0,0,2.6669,2.6639,2.6637,2.6606,2.6585,2.6557,2.6541,2.6536,2.6512,2.6513,2.6496,2.6489,2.6455,2.644,2.6454,2.6398,2.6405,2.6401,2.6409,2.6406,2.6404,2.6407,2.6453,0,0,0,0,0,2.6667,2.6646,2.662,2.6595,2.6585,2.6565,2.655,2.6542,2.6519,2.6509,2.6489,2.6465,2.6439,2.6422,2.6396,2.6361,2.6352,2.6345,2.6343,2.6342,2.6338,2.6315,2.6311,2.6355,2.6355,2.6355,0,0,2.6661,2.6642,2.663,2.6595,2.6578,2.6554,2.6557,2.6532,2.6514,2.6505,2.6472,2.6456,2.6428,2.6393,2.6376,2.6379,2.6324,2.6339,2.6338,2.6335,2.6312,2.6308,2.6305,2.6354,2.6354,2.6354,0,0,2.6639,2.6624,2.66,2.6583,2.6556,2.6543,2.6537,2.6509,2.6499,2.6466,2.6458,2.6435,2.639,2.637,2.6354,2.6321,2.6316,2.6313,2.6302,2.6279,2.6276,2.6273,2.6258,2.6254,2.631,2.631,2.631,0,2.6635,2.6601,2.6588,2.6563,2.6547,2.6539,2.6513,2.6496,2.6463,2.6451,2.6455,2.6397,2.6378,2.6337,2.6329,2.6317,2.6307,2.6316,2.6278,2.6274,2.6271,2.6257,2.6252,2.631,2.631,2.631,2.631,0,2.6596,2.6572,2.6555,2.6524,2.6506,2.6481,2.6462,2.6445,2.6438,2.6423,2.6388,2.6364,2.6332,2.6322,2.6315,2.6278,2.6281,2.6282,2.6288,2.6267,2.6253,2.6248,2.631,2.631,2.631,2.631,0,0,2.6575,2.6536,2.653,2.6515,2.6485,2.6464,2.6438,2.6408,2.6392,2.6369,2.6344,2.6306,2.6306,2.6287,2.6277,2.6258,2.623,2.626,2.6259,2.6253,2.6185,2.6184,2.6178,2.6227,2.6226,2.6225,2.6187,0,2.6548,2.6501,2.6488,2.6448,2.6424,2.6415,2.6391,2.6369,2.6354,2.633,2.6312,2.6285,2.6288,2.6277,2.6257,2.6238,2.6216,2.6241,2.6201,2.6199,2.6206,2.6171,2.617,2.6135,2.6182,2.6181,2.618,0,2.651,2.6486,2.6443,2.6414,2.6403,2.6383,2.6352,2.633,2.6303,2.6294,2.6272,2.6263,2.6232,2.6242,2.6197,2.6214,2.6196,2.6184,2.6182,2.6176,2.6187,2.6162,2.6124,2.6118,2.6173,2.6173,2.6174,0,2.6496,2.6453,2.6422,2.6409,2.6375,2.636,2.6344,2.6318,2.63,2.6273,2.6261,2.6231,2.6213,2.6189,2.6171,2.618,2.6126,2.6135,2.6115,2.6115,2.6102,2.6103,2.6059,2.6095,2.6095,2.6095,2.6095,0,2.6465,2.6439,2.6415,2.6395,2.6365,2.6349,2.6318,2.6302,2.6279,2.6254,2.6244,2.6221,2.6199,2.6172,2.6157,2.612,2.6113,2.6103,2.6099,2.6102,2.6103,2.6089,2.609,2.6094,2.6094,2.6095,2.6095,0,2.6445,2.6428,2.6392,2.6363,2.6354,2.6333,2.6306,2.6285,2.627,2.6238,2.6229,2.6204,2.6171,2.6151,2.611,2.61,2.6058,2.6056,2.6068,2.6065,2.6045,2.6046,2.5988,2.5979,2.6024,2.6024,2.6023,0,2.6426,2.6405,2.6373,2.6356,2.6341,2.6314,2.6296,2.6279,2.6259,2.6226,2.6208,2.6175,2.6147,2.6095,2.6071,2.6038,2.6034,2.6016,2.6029,2.6032,2.603,2.6031,2.6027,2.6013,2.6013,2.6012,2.6012,0,2.6393,2.6385,2.636,2.633,2.6308,2.6284,2.626,2.6246,2.6224,2.6203,2.6169,2.6148,2.6105,2.6071,2.6036,2.6017,2.6009,2.6008,2.6001,2.6004,2.601,2.6004,2.6059,2.6009,2.601,2.601,2.601,2.601,2.6371,2.6351,2.6325,2.6296,2.6276,2.6253,2.6231,2.6212,2.6185,2.6149,2.614,2.6105,2.6075,2.6027,2.6008,2.5978,2.598,2.5971,2.5968,2.5965,2.5963,2.6017,2.5972,2.5972,2.5972,2.5972,2.5972,0,2.6335,2.6317,2.6291,2.6257,2.6233,2.6231,2.6203,2.6182,2.6152,2.6126,2.6098,2.6058,2.6025,2.5998,2.5963,2.5944,2.5939,2.5935,2.5935,2.593,2.5965,2.5973,2.5939,2.5939,2.5939,2.5939,2.5939,2.5939,2.6314,2.6279,2.6268,2.6222,2.6204,2.617,2.6154,2.6132,2.6111,2.6067,2.6039,2.6023,2.5995,2.5957,2.5925,2.5918,2.5904,2.59,2.5891,2.5924,2.5928,2.5931,2.5939,2.5898,2.5898,2.5859,2.5858,2.5858]}]]